Home   Weather   Yverdon-les-Bains   Past weeks

Flag for Switzerland Past Weather in Yverdon-les-Bains, Vaud, Switzerland — Yesterday and Last 2 Weeks

Now
34 °F

Chilly.


Feels Like: 34 °F
Forecast: 36 / 56 °F
Wind: 1 mph from Southeast

Location: Payerne

Current Time: Feb 27, 2017 at 12:50:54 am

Latest Report: Feb 27, 2017 at 12:00 am


Visibility: N/A

Pressure: 30.06 "Hg

Humidity: 80%

Dew Point: 28 °F

Location of Yverdon-les-BainsLocation

Past Weather in Yverdon-les-Bains — Graph

°F

Yverdon-les-Bains Temperature Yesterday

Maximum temperature yesterday: 56 °F (at 3:00 pm)
Minimum temperature yesterday: 30 °F (at 3:00 am)
Average temperature yesterday: 41 °F

High & Low Weather Summary for the Past Weeks

 TemperatureHumidityPressure
High65 °F (Feb 23, 2:00 pm)100% (Feb 18, 3:00 am)30.67 "Hg (Feb 18, 3:00 am)
Low28 °F (Feb 15, 6:00 am)21% (Feb 23, 2:00 pm)29.66 "Hg (Feb 23, 5:00 pm)
Average41 °F76%30.25 "Hg
* Reported Feb 11 11:00 pm — Feb 26 11:00 pm, Yverdon-les-Bains, Weather by CustomWeather, © 2017

Note: Actual official high and low records may vary slightly from our data, if they occured in-between our weather recording intervals... More about our weather records

Advertising

Yverdon-les-Bains Weather History for the Previous 24 Hours

Scroll right to see more
 ConditionsComfort  
Time TempWeatherWind HumidityBarometerVisibility
11:00 pm
Sun, Feb 26
37 °FChilly.3 mph72%30.06 "HgN/A
10:00 pm38 °FClear.1 mph70%30.06 "Hg16 mi
9:00 pm39 °FChilly.1 mph75%30.06 "HgN/A
8:00 pm44 °FQuite cool.2 mph59%30.04 "HgN/A
7:00 pm46 °FPassing clouds.2 mph59%30.03 "Hg16 mi
6:00 pm52 °FCool.2 mph49%30.00 "HgN/A
5:00 pm54 °FCool.8 mph37%29.99 "HgN/A
4:00 pm55 °FCool.9 mph35%30.00 "HgN/A
3:00 pm56 °FRefreshingly cool.9 mph35%30.00 "HgN/A
2:00 pm53 °FCool.2 mph45%30.04 "HgN/A
1:00 pm50 °FPartly sunny.2 mph52%30.08 "Hg16 mi
12:00 pm47 °FCool.2 mph52%30.11 "HgN/A
11:00 am43 °FQuite cool.3 mph66%30.15 "HgN/A
10:00 am40 °FPartly sunny.2 mph66%30.16 "Hg16 mi
9:00 am36 °FChilly.1 mph74%30.17 "HgN/A
8:00 am31 °FChilly.2 mph87%30.18 "HgN/A
7:00 am31 °FPassing clouds.2 mph87%30.17 "Hg12 mi
6:00 am31 °FChilly.1 mph88%30.18 "HgN/A
5:00 am32 °FChilly.1 mph84%30.17 "HgN/A
4:00 am30 °FChilly.No wind89%30.19 "HgN/A
3:00 am30 °FChilly.1 mph89%30.19 "HgN/A
2:00 am32 °FChilly.2 mph85%30.19 "HgN/A
1:00 am33 °FClear.No wind82%30.18 "Hg12 mi
12:00 am34 °FChilly.6 mph80%30.19 "HgN/A
Weather by CustomWeather, © 2017

See weather overviewHow to use our weather pages